Theta_e
344 344 344 345 345 343 345 349 349 349 349 349 349 349 349 349 349 348 347 347 346 345 344 345 345 345 347 345 346 347 346 346 345 344 344 343 343 343 343 343 342 342 342 341 341 341 342 342 342 344 345 345 342 332 330 331 331 333 333 334 336 334
343 343 344 344 344 345 346 347 345 345 347 348 347 347 346 345 348 344 347 345 344 345 343 342 344 347 344 345 344 346 345 345 344 344 343 343 343 342 342 342 342 340 341 340 342 330 332 339 340 342 345 342 334 331 332 332 332 333 334 333 335 339
343 343 343 342 343 343 344 344 344 344 345 347 347 346 344 343 340 341 342 343 344 342 342 344 344 345 345 345 345 346 345 344 344 343 343 342 342 342 341 341 341 341 341 341 332 328 329 329 330 340 341 335 331 330 331 332 332 333 333 334 333 341
342 341 340 338 339 339 342 341 341 342 342 342 341 342 340 339 340 341 341 340 341 343 341 341 347 348 347 344 343 345 345 344 344 342 342 341 341 340 341 340 340 341 338 336 328 328 329 329 329 330 332 332 330 330 331 332 332 333 334 338 335 342
340 339 338 337 338 337 337 338 338 340 340 339 339 339 338 338 339 339 339 339 339 339 338 339 340 341 340 341 339 339 340 338 338 337 341 331 331 331 331 327 325 332 326 328 329 325 326 327 328 332 331 332 331 331 332 333 333 333 333 334 335 341
338 337 337 336 337 338 337 337 337 338 338 337 338 338 337 336 337 338 339 340 339 337 337 338 339 339 338 337 336 336 336 336 334 334 336 330 331 329 329 329 328 328 328 328 328 328 327 330 328 331 331 332 330 330 331 331 333 333 333 333 337 341
337 337 337 339 338 337 336 336 336 336 335 335 336 336 336 336 337 338 339 340 337 335 335 336 336 336 335 335 334 334 334 334 333 333 334 331 331 331 329 329 329 330 328 329 329 330 330 330 329 329 330 331 330 331 331 332 332 332 332 333 339 341
337 337 337 337 335 335 334 335 335 339 337 340 337 334 334 336 338 338 339 339 339 335 334 335 334 333 332 332 332 334 333 331 331 331 333 331 330 330 330 329 331 330 329 328 328 328 329 331 330 330 330 330 330 330 331 331 332 332 332 334 336 341
336 334 334 335 334 334 333 333 333 334 336 341 334 334 335 337 336 337 338 339 340 335 335 335 333 332 331 332 332 333 332 331 332 331 333 331 332 330 329 329 329 328 328 327 327 328 329 330 330 330 330 330 330 330 330 331 332 332 332 331 334 338
336 334 335 335 332 332 332 332 332 334 335 338 333 333 336 335 336 336 336 337 338 336 335 334 332 330 331 329 330 330 332 331 331 330 330 330 329 330 328 328 329 329 329 327 327 330 329 329 331 330 330 331 330 330 330 331 332 332 333 333 334 335
335 335 335 333 331 331 333 332 333 333 334 333 333 334 335 334 335 336 336 337 338 337 334 332 331 330 329 329 329 330 329 330 329 329 329 330 332 331 330 329 330 329 328 327 327 328 329 328 328 330 330 330 330 330 330 331 331 332 333 332 332 332
335 335 334 332 332 331 331 332 333 333 333 333 333 333 334 334 337 335 336 336 337 336 333 331 331 330 329 328 328 328 329 330 328 329 329 330 330 331 331 331 332 331 329 328 327 328 327 329 328 328 328 330 331 330 330 331 331 332 333 331 331 331
334 334 332 331 331 331 331 332 332 332 333 334 333 334 334 334 334 333 335 335 335 336 334 332 330 331 331 328 328 328 327 329 331 331 330 330 331 331 332 331 331 331 329 327 327 327 330 329 326 326 327 330 331 331 331 331 331 332 332 330 331 330
333 332 331 331 331 331 331 331 332 332 333 333 333 333 334 334 335 334 336 335 334 336 334 332 331 329 329 328 328 327 329 333 333 330 330 329 329 330 329 329 329 329 331 327 326 326 327 325 325 327 327 328 328 328 329 330 330 331 332 332 331 331
332 332 333 331 331 330 330 331 331 331 331 332 333 331 332 333 332 333 335 334 334 335 334 332 330 329 328 328 328 329 330 331 331 329 329 327 328 328 329 328 328 327 327 327 327 327 327 325 327 327 326 327 328 329 329 329 331 331 332 331 331 330
332 331 330 332 330 330 330 330 331 334 331 331 332 332 331 332 333 334 334 334 334 335 334 333 332 330 329 328 330 331 330 330 330 330 329 328 327 327 327 328 327 328 325 325 327 327 327 327 328 328 327 328 329 330 328 328 329 330 331 330 330 328
331 330 330 330 330 329 329 329 330 332 331 331 332 331 331 332 334 335 334 334 333 334 332 334 334 332 331 331 331 330 330 331 331 331 329 327 326 328 328 328 327 328 326 325 327 327 328 328 328 327 327 327 328 328 327 328 329 329 331 329 327 327
331 331 331 330 330 329 329 330 330 331 334 332 332 332 332 333 334 333 333 333 333 333 332 333 334 333 331 331 331 330 330 330 330 330 329 328 327 326 326 327 326 326 327 326 325 326 326 327 328 327 327 327 326 328 328 328 328 331 326 326 327 327
331 331 331 330 330 330 330 330 330 332 333 333 333 332 333 333 333 333 332 332 333 333 333 331 333 332 331 330 328 329 329 329 330 328 328 327 326 326 327 325 325 325 327 327 326 326 326 328 329 328 327 325 326 326 327 328 328 327 326 326 327 329
331 331 331 331 331 331 331 331 332 332 331 330 329 333 332 332 333 332 334 334 334 332 333 332 331 331 330 328 327 327 328 328 329 329 327 325 324 326 326 324 323 326 325 327 327 326 326 327 326 325 324 324 325 326 326 326 326 326 325 325 326 326
330 331 330 330 330 330 331 330 328 329 328 328 329 329 331 330 331 331 334 336 335 333 332 333 333 331 329 332 327 326 327 327 329 329 328 326 325 325 326 324 324 324 324 324 324 325 326 326 324 320 322 322 322 324 330 327 326 326 327 326 325 324
330 331 330 330 330 330 331 331 328 327 325 324 326 328 326 326 330 333 334 334 333 333 331 332 332 331 330 328 327 327 326 326 328 328 328 327 325 329 328 327 325 323 323 322 323 327 328 323 319 318 317 315 317 319 322 321 324 324 324 324 323 322
331 330 330 330 330 329 325 325 325 323 326 324 327 328 329 330 332 332 332 333 333 332 332 332 331 331 330 328 328 328 328 328 328 330 327 325 325 326 326 327 324 323 321 320 323 324 324 320 319 318 316 316 312 312 316 315 319 321 322 320 322 323
330 329 329 330 329 326 327 323 322 323 324 325 325 328 328 328 330 331 331 332 331 331 331 330 331 331 329 327 327 327 327 328 328 329 328 326 325 325 325 325 323 322 323 322 318 320 323 321 319 319 313 310 311 309 308 311 312 314 319 320 320 320
328 327 327 328 326 324 324 323 324 324 324 324 325 324 324 323 326 330 329 328 328 329 329 329 329 330 329 326 325 326 327 327 326 325 327 325 326 326 326 326 324 323 322 322 318 317 320 323 323 321 317 312 309 307 306 310 309 310 313 314 317 318
324 324 325 324 323 324 324 322 321 321 320 320 319 320 321 323 324 326 327 326 328 329 329 327 327 329 328 328 326 326 326 328 327 326 327 325 327 327 326 326 325 324 321 322 322 318 317 320 321 322 318 314 313 309 310 311 307 304 311 312 315 318
324 323 323 322 323 323 321 321 321 321 321 320 318 317 319 323 324 323 326 326 326 326 327 327 325 325 326 326 325 325 326 327 328 326 328 327 327 326 327 328 327 324 323 323 321 318 319 317 319 319 320 320 322 317 316 311 305 306 305 308 311 313
323 323 322 322 322 322 320 318 319 319 319 318 318 317 319 320 320 322 322 323 324 323 324 325 324 322 323 325 325 324 325 326 326 327 327 328 328 326 327 327 326 324 325 324 322 320 318 318 319 317 320 318 318 318 316 315 311 309 306 306 306 311
323 323 322 322 322 320 320 320 321 318 316 316 317 318 319 320 320 321 319 319 320 319 319 321 322 323 323 324 326 324 323 323 323 326 329 326 325 327 325 324 324 323 324 323 321 321 321 319 318 319 318 318 315 316 318 317 315 310 306 306 304 307
323 323 322 320 322 321 320 321 318 316 315 315 316 315 316 317 317 319 318 317 317 318 319 319 319 320 320 322 321 321 321 322 322 324 326 324 323 324 325 325 325 324 323 323 321 322 322 320 321 321 321 319 315 314 316 315 312 308 308 307 306 306
323 322 322 321 320 319 319 319 317 316 315 314 314 315 315 314 315 317 317 316 317 317 319 319 319 319 319 320 320 320 319 319 321 327 323 323 323 324 324 324 324 323 322 322 321 320 319 319 320 320 320 320 318 318 315 313 313 309 307 305 305 305
322 321 321 320 320 319 318 318 317 316 315 315 315 315 314 313 315 316 317 316 316 317 317 318 317 318 319 319 320 319 320 321 322 322 322 323 322 324 324 325 324 324 323 323 323 322 319 319 319 320 319 319 318 318 316 315 315 312 308 307 307 305
321 319 320 319 320 317 316 317 317 317 316 316 315 315 314 313 313 315 317 317 316 316 316 318 317 318 317 318 318 319 319 319 321 322 323 323 323 323 324 323 324 323 323 323 323 322 320 319 320 320 319 318 319 318 317 316 317 313 309 308 308 305
320 319 319 319 319 317 316 317 318 318 317 316 315 315 315 314 314 316 318 317 316 316 316 316 316 317 318 318 318 318 318 317 317 319 322 323 323 323 323 323 322 321 321 319 319 318 318 317 318 317 317 318 317 317 317 317 316 312 309 308 305 305
320 320 319 319 319 318 317 317 318 317 316 316 316 315 315 316 315 316 316 317 317 317 317 316 318 316 318 318 317 317 317 317 317 318 320 322 323 321 321 322 320 319 317 315 315 313 311 312 314 313 311 312 311 312 311 309 316 313 310 310 308 305
322 321 320 320 320 319 318 318 317 317 316 317 318 317 317 316 315 316 316 318 317 317 317 317 316 317 316 317 317 316 314 313 315 318 319 318 318 319 318 318 315 313 312 315 312 311 309 309 308 308 308 308 309 308 309 309 315 314 311 311 308 305
323 322 321 320 321 319 319 317 317 317 317 316 315 315 315 314 316 317 318 318 317 317 316 316 316 315 316 315 313 312 312 312 314 315 315 315 315 315 315 314 313 311 311 310 310 308 308 309 308 308 308 308 308 307 307 310 313 314 311 309 307 304
Wind_Speed
7 8 8 8 7 8 11 14 12 13 13 12 12 12 12 12 12 11 10 10 9 6 5 6 7 6 10 7 9 9 10 12 12 10 9 8 8 8 7 5 4 2 1 2 2 3 4 6 7 7 8 8 8 6 5 6 6 5 4 5 5 5
7 8 8 7 6 7 8 10 7 7 7 8 10 10 8 6 7 5 11 7 5 4 4 4 5 8 5 7 7 10 10 11 11 10 8 7 7 7 6 5 4 1 1 1 2 1 3 5 7 7 9 7 6 5 5 6 5 5 4 4 5 7
8 8 8 7 6 6 8 6 6 6 6 7 8 7 5 6 5 5 4 4 4 5 4 4 5 6 5 8 7 9 10 11 11 9 8 7 6 7 6 5 4 3 1 2 2 2 2 3 4 6 8 4 6 5 5 5 5 5 5 4 4 10
8 8 8 6 6 5 6 5 4 4 5 5 5 5 5 5 5 5 5 4 4 4 3 3 9 13 10 5 6 8 10 10 10 8 7 4 5 4 6 4 3 3 2 1 1 1 2 3 4 5 2 3 6 5 5 5 5 5 5 5 5 10
8 8 7 7 7 4 4 5 4 5 5 5 5 5 5 5 5 5 5 5 4 4 4 4 4 4 4 4 3 3 3 4 4 4 5 3 2 1 2 1 1 1 0 0 1 2 1 3 3 7 1 2 5 5 5 5 5 5 4 4 5 9
8 8 8 6 6 6 5 5 5 5 5 4 5 5 5 5 4 5 5 5 5 6 5 5 5 4 4 3 4 3 4 4 3 3 3 2 1 0 0 0 0 0 0 0 1 3 2 2 2 6 4 4 5 4 5 3 3 4 4 4 5 9
10 8 10 8 8 6 6 5 4 3 5 5 4 5 5 5 5 5 5 5 6 6 6 5 5 4 3 4 3 3 4 3 3 3 2 3 1 1 1 1 2 3 3 4 4 4 4 2 0 4 4 5 5 5 4 4 3 4 4 4 5 8
8 8 7 7 9 7 5 4 2 4 5 6 6 4 4 4 4 4 5 4 5 6 6 5 4 4 3 3 3 3 3 3 2 2 2 1 1 4 4 4 4 4 5 5 4 3 3 4 5 5 5 4 5 6 5 4 3 4 4 5 4 5
8 9 7 6 8 6 4 4 2 4 6 6 6 5 4 4 4 4 4 5 5 6 5 5 5 4 4 4 3 3 4 3 4 3 4 4 3 3 3 3 4 5 5 5 4 5 4 3 5 4 6 5 5 5 5 4 4 4 4 4 3 5
8 8 8 7 6 6 5 7 5 5 6 7 7 5 5 5 4 5 4 4 4 5 5 5 5 4 5 4 3 3 3 3 4 2 3 4 2 4 3 2 4 4 5 5 6 4 4 4 4 4 3 6 5 5 5 5 5 5 4 4 3 3
10 11 8 9 10 11 8 7 6 6 6 7 6 5 4 4 4 3 4 3 4 4 5 5 5 5 4 4 3 3 2 2 3 2 3 4 4 4 3 2 3 4 4 6 6 4 4 3 2 4 2 4 4 5 5 5 5 5 4 3 2 2
9 10 11 9 10 10 8 9 8 6 6 7 7 6 5 4 4 3 3 3 3 4 4 4 4 4 5 4 4 4 3 3 3 2 2 3 4 4 3 2 3 4 2 5 6 5 3 5 4 4 3 3 4 5 5 5 5 5 3 2 3 3
9 10 12 10 9 9 9 7 8 7 6 5 5 5 5 4 4 1 1 2 2 4 4 5 4 4 4 5 4 4 3 3 3 2 2 3 3 4 4 4 3 4 3 4 6 5 4 3 2 3 2 2 5 5 5 5 6 5 1 3 3 3
9 12 12 10 6 8 8 6 5 5 3 5 5 4 4 4 4 4 3 3 3 4 4 4 4 4 5 5 4 3 3 3 3 3 3 3 4 3 3 4 4 5 4 5 6 6 5 2 1 3 2 2 3 5 5 7 7 2 5 2 3 3
11 11 11 9 9 7 5 5 5 4 4 4 4 2 2 3 2 3 3 3 3 3 5 5 5 6 5 5 4 4 3 3 4 3 4 2 4 4 4 4 4 7 4 4 5 4 5 3 2 5 2 3 5 5 7 9 5 6 5 2 3 2
9 11 10 9 7 5 4 4 4 4 4 3 4 3 3 3 4 3 4 4 4 4 4 5 5 5 4 4 5 4 4 4 3 3 3 3 3 4 3 4 2 6 6 4 6 5 4 4 4 5 3 4 4 4 9 8 6 5 1 2 3 1
9 9 8 7 6 4 4 4 4 4 4 4 4 4 4 4 4 5 5 5 4 4 4 4 5 4 4 4 4 5 4 5 4 4 4 3 3 3 4 4 3 2 4 5 4 5 5 4 5 5 4 4 3 6 10 5 6 4 2 3 2 2
7 8 7 8 7 5 4 4 4 4 3 3 3 4 4 4 4 4 4 5 4 4 3 4 5 4 4 4 5 5 4 4 4 4 4 4 4 4 3 5 5 3 4 5 5 6 6 4 5 5 5 5 4 6 10 6 4 2 3 3 3 4
9 9 8 8 7 6 4 3 2 3 4 4 4 3 4 5 5 5 5 5 4 4 3 3 4 4 4 4 5 5 5 4 5 4 4 3 4 4 4 2 4 4 4 3 4 4 5 5 5 5 5 4 4 6 7 5 5 5 3 3 3 3
8 9 8 8 7 7 6 6 6 3 3 4 4 4 3 5 5 5 4 5 4 3 3 3 4 4 5 5 5 5 6 5 5 5 4 4 3 5 5 4 3 5 6 4 4 4 4 6 6 6 5 5 4 5 9 5 2 2 2 2 2 3
8 9 9 8 8 8 7 6 3 5 5 5 4 3 3 3 4 4 3 5 4 4 4 4 4 4 5 5 5 4 4 4 4 4 5 5 4 3 4 3 3 3 6 5 2 2 2 4 7 5 5 5 5 3 4 5 3 3 2 1 2 1
9 9 10 10 9 8 7 7 7 6 3 4 4 5 3 3 4 3 4 5 5 4 3 3 4 4 3 5 5 5 5 4 4 4 4 4 3 3 4 4 3 4 2 4 3 3 4 3 2 4 6 3 3 4 3 5 3 3 3 2 2 2
9 9 9 8 8 7 4 4 5 4 5 3 2 3 4 3 3 4 5 5 5 5 5 4 4 3 3 3 4 5 5 4 4 4 5 4 4 4 4 5 3 5 4 2 3 1 1 2 3 3 3 5 1 3 4 3 3 4 2 3 2 2
9 7 8 7 6 4 6 5 4 6 5 5 4 3 3 3 4 6 5 5 5 5 4 4 4 4 3 3 4 5 4 4 5 4 5 6 4 4 4 4 3 2 4 4 1 1 2 2 3 7 3 1 1 4 3 1 2 3 1 4 2 2
7 6 6 6 7 6 5 5 5 5 5 7 6 5 5 4 3 4 5 4 5 4 4 4 4 4 4 4 3 4 4 3 3 3 4 5 5 6 5 4 5 4 4 6 2 1 1 3 3 1 6 4 3 1 2 2 3 4 4 3 2 3
5 5 6 6 6 6 7 9 9 9 8 6 6 6 6 6 5 5 6 3 4 4 4 3 3 3 3 3 4 4 4 5 4 3 4 4 4 4 4 5 5 5 3 1 5 4 2 2 2 2 2 2 5 4 5 3 4 2 3 3 1 4
6 5 5 5 5 6 7 7 10 10 9 9 9 4 4 5 6 4 5 5 5 3 3 4 3 3 3 2 2 3 3 4 4 3 3 5 5 5 5 5 4 4 4 4 3 4 5 3 2 2 2 2 1 1 5 5 3 4 5 3 4 3
5 6 5 5 5 6 8 6 7 6 7 8 7 6 6 5 3 4 5 4 5 4 3 3 4 3 3 3 2 3 3 4 4 3 2 4 6 5 4 3 4 3 3 4 4 5 4 3 6 2 2 1 3 3 3 5 4 5 6 6 3 4
6 6 5 4 5 4 5 7 7 7 7 5 7 6 4 4 5 5 5 3 4 3 3 2 2 3 2 3 3 3 3 3 3 4 3 2 1 4 5 5 5 5 5 3 3 3 5 5 4 4 2 1 3 3 5 4 4 4 5 7 3 3
6 6 5 4 4 3 4 6 8 8 9 7 6 5 5 5 5 5 6 4 4 4 4 3 3 3 3 2 2 3 3 4 4 3 3 3 3 3 4 5 5 5 4 4 3 5 6 5 4 4 4 4 2 3 4 3 2 5 4 3 8 6
5 4 3 3 3 3 4 5 8 8 9 9 7 7 7 6 5 5 6 4 4 4 4 6 5 3 4 4 3 3 3 3 4 4 3 4 4 5 5 5 4 3 3 4 4 4 3 3 3 4 3 5 6 7 6 5 5 4 4 3 4 3
4 4 4 4 4 4 5 6 7 8 9 8 7 7 8 7 6 6 5 5 3 5 4 4 3 5 4 4 4 4 4 5 5 5 5 4 4 5 5 5 5 5 4 3 3 4 4 5 4 4 3 4 5 4 3 4 5 5 7 7 8 6
5 4 4 4 4 5 5 6 7 8 7 7 7 7 7 6 5 6 5 5 4 6 4 5 4 5 3 4 4 5 5 6 6 5 5 5 4 4 5 5 5 5 6 6 6 6 6 6 7 6 6 2 3 4 3 3 5 5 4 6 8 6
6 4 4 4 5 6 5 6 6 7 7 7 7 7 6 7 5 6 6 6 6 6 5 5 4 4 3 4 4 4 4 4 4 4 4 5 5 4 4 5 4 5 4 4 4 4 4 4 4 3 3 4 3 4 3 5 5 7 7 7 6 7
6 4 4 4 5 6 5 6 6 7 7 6 7 6 6 6 6 6 4 5 4 5 6 3 6 4 3 4 3 3 4 4 4 4 4 4 4 4 4 4 3 3 3 3 4 4 3 5 5 4 4 4 4 3 3 5 6 6 7 8 8 8
7 5 4 4 5 5 5 5 6 7 7 6 5 5 4 4 3 5 5 6 5 4 5 5 4 4 4 5 4 4 4 4 4 5 4 5 4 4 4 5 4 4 4 2 5 4 4 5 5 5 5 4 4 1 1 5 7 7 7 7 6 6
8 7 5 4 5 4 5 5 5 6 6 6 6 6 6 4 4 4 6 6 6 5 4 4 4 4 4 4 4 5 5 4 4 4 4 4 5 5 5 5 5 4 4 2 5 4 4 6 4 5 4 5 5 4 3 5 7 7 7 6 6 6
Wind_Direction
108 108 111 118 122 123 127 123 122 121 120 117 116 120 125 128 129 129 125 122 114 113 115 117 114 110 111 106 112 121 123 117 114 116 121 117 110 107 110 111 109 65 134 218 265 311 325 321 332 345 26 53 90 99 114 111 114 123 129 126 123 128
114 117 119 120 123 124 127 122 119 119 116 117 123 125 122 117 119 112 126 117 112 112 107 109 118 117 113 114 124 129 124 117 115 118 119 112 106 106 106 110 110 124 240 294 293 19 351 334 329 331 35 68 95 110 117 122 125 131 131 132 133 136
120 122 114 112 114 121 120 119 111 113 117 121 126 117 103 100 88 96 87 98 98 101 108 115 115 123 116 129 128 133 130 124 122 123 121 116 111 112 109 113 121 130 249 301 8 11 349 324 321 2 54 58 108 109 111 116 123 129 140 143 139 139
124 120 112 108 107 120 115 107 116 111 106 106 99 94 92 94 90 89 94 91 97 99 104 120 140 138 133 119 134 140 131 124 121 120 118 102 105 115 111 107 134 137 92 6 332 325 316 315 308 57 40 76 111 114 122 133 139 142 149 141 140 146
117 107 102 104 106 121 98 112 113 113 112 99 92 94 98 95 103 104 103 101 99 96 88 81 82 93 99 123 144 139 114 98 102 101 100 92 79 48 79 72 33 52 125 239 327 312 324 319 326 61 77 134 126 126 133 138 141 141 136 129 129 122
96 112 102 102 112 105 117 130 126 107 90 80 97 106 112 115 113 111 111 111 106 106 102 103 107 110 116 145 143 134 121 115 108 128 113 120 101 68 81 60 66 114 260 300 326 306 289 275 10 98 151 148 134 123 121 119 122 122 118 114 117 117
115 124 124 124 113 115 125 107 83 103 108 98 102 116 127 127 130 130 126 127 122 112 108 112 113 121 147 154 138 124 114 113 135 148 140 114 145 82 75 44 56 58 59 41 4 335 306 336 99 116 140 147 127 113 101 109 110 105 98 97 115 120
120 124 121 115 114 114 116 100 98 111 116 127 124 130 130 136 133 131 129 125 119 115 125 127 129 138 152 123 121 113 113 106 115 137 124 101 70 50 53 55 60 60 64 57 41 3 22 65 78 100 113 105 111 119 117 111 96 84 81 85 89 105
123 115 97 97 95 92 98 103 172 147 137 141 138 149 139 121 127 130 128 126 126 126 132 134 143 157 133 116 111 114 119 128 112 113 119 81 83 79 63 63 71 73 77 76 63 50 56 32 73 92 117 116 124 120 119 110 103 91 85 92 101 112
116 105 108 92 91 107 142 164 193 168 157 152 160 151 137 133 150 141 134 125 122 136 144 144 152 162 131 120 109 105 113 125 121 117 99 95 103 102 110 82 79 82 86 87 80 77 85 89 90 82 76 117 118 119 122 120 109 104 102 97 106 117
135 129 122 128 141 159 170 171 180 180 163 163 145 135 132 139 133 134 142 137 148 151 140 148 154 147 126 118 120 125 131 122 107 113 115 113 113 114 117 112 98 107 113 106 101 107 103 91 89 107 74 102 108 115 119 119 118 119 109 106 126 140
134 132 134 151 157 160 170 179 180 173 171 173 151 149 151 147 138 156 147 164 166 153 139 151 148 137 128 124 132 141 144 140 147 150 124 125 117 129 132 119 102 98 107 115 115 112 127 117 109 75 63 102 105 109 122 124 119 107 103 133 163 164
128 131 137 164 174 166 173 183 177 173 178 161 137 146 142 149 127 122 176 183 167 147 143 149 152 135 128 138 150 146 134 145 150 151 138 131 127 119 120 114 101 108 105 111 109 105 82 49 65 94 88 101 119 119 126 118 96 64 117 203 175 78
130 134 150 165 201 173 181 173 177 151 153 143 150 148 158 154 148 173 188 165 164 146 139 145 142 121 133 141 138 140 138 137 143 138 132 130 112 118 110 114 126 101 108 116 117 120 110 98 260 89 71 111 107 115 116 93 78 169 216 165 70 70
147 148 161 170 186 183 170 162 159 149 155 138 119 123 129 115 137 181 161 168 162 150 146 150 145 142 149 143 140 136 144 151 143 143 130 103 105 84 107 120 121 105 115 117 109 116 116 140 133 100 131 134 120 115 95 74 116 200 205 118 83 71
154 155 162 170 176 175 156 156 146 147 134 128 128 135 148 156 181 175 161 168 176 158 150 148 144 144 140 141 135 141 156 143 139 130 120 110 102 110 106 92 81 122 122 113 111 115 121 130 122 122 143 112 107 102 82 96 189 210 76 73 94 114
146 145 150 150 154 149 139 145 142 152 158 151 159 168 176 179 181 176 166 166 171 166 152 143 137 143 135 141 136 143 156 146 144 141 132 130 121 131 119 104 73 77 110 123 119 115 112 132 128 119 101 88 82 92 92 153 188 168 138 136 88 84
135 142 141 143 147 141 154 149 155 161 166 175 174 177 180 175 179 177 167 170 169 167 155 141 133 140 141 140 136 140 141 136 137 134 136 138 133 129 118 127 121 94 103 122 121 119 117 113 102 99 94 89 86 96 122 154 194 139 173 152 149 155
137 141 139 139 140 142 148 152 151 158 171 185 185 176 168 179 182 172 181 173 164 153 146 137 133 137 133 124 120 126 130 143 139 134 125 116 124 125 123 118 129 114 80 78 117 105 106 104 96 91 81 66 80 96 105 141 179 165 194 183 169 162
144 144 141 141 143 144 151 163 166 160 162 175 166 158 162 173 179 181 175 167 157 148 150 138 131 130 130 134 137 143 141 144 142 133 125 121 130 145 142 130 128 119 104 76 57 94 104 101 86 80 84 66 60 88 116 153 193 230 184 167 175 138
156 150 147 148 152 153 160 157 154 171 174 175 169 152 159 170 187 190 170 146 131 138 142 142 139 137 146 142 139 135 131 137 137 142 143 153 164 148 121 114 115 93 114 111 76 102 110 115 106 73 64 68 55 46 81 109 139 214 207 115 93 110
155 158 159 160 161 165 168 170 161 174 168 148 144 153 173 185 173 160 132 113 123 138 135 133 141 143 142 143 137 132 140 143 137 149 151 142 141 133 117 120 133 84 34 123 129 158 194 115 46 131 121 73 31 16 54 77 120 120 133 99 86 93
162 162 165 163 158 163 158 150 147 164 151 146 173 168 158 157 139 117 116 123 122 127 134 143 149 139 136 140 131 132 141 146 147 149 133 137 140 139 134 138 151 135 111 50 102 89 139 76 138 97 91 90 69 65 355 17 27 61 97 124 116 135
163 159 159 167 157 151 154 163 148 144 154 145 153 122 94 91 95 104 115 121 125 133 136 142 142 137 131 145 147 140 137 142 148 146 150 150 158 152 135 128 116 151 140 128 106 36 29 62 125 137 98 117 176 118 92 55 41 354 340 114 128 126
154 151 153 155 157 148 126 114 114 99 94 73 59 79 98 86 113 125 120 124 144 134 138 147 149 144 145 165 150 130 133 143 137 139 147 150 156 161 163 156 149 160 175 150 156 104 2 46 67 74 137 113 58 43 206 201 114 13 360 66 133 134
132 142 156 166 157 156 155 136 132 134 129 124 127 130 135 150 146 147 161 146 131 146 149 149 149 146 145 160 157 149 139 142 147 158 149 149 133 134 153 154 170 162 152 196 145 123 106 21 67 59 117 162 163 171 173 202 88 115 11 18 69 103
149 152 160 163 169 152 129 137 140 145 146 148 145 170 161 156 151 152 131 141 151 145 151 151 165 153 159 160 149 144 142 146 158 169 152 137 144 155 158 157 148 147 156 133 127 144 163 170 43 12 21 33 81 115 133 131 140 137 78 355 18 65
144 153 168 163 157 140 136 135 127 123 133 139 146 154 158 154 118 128 125 132 132 144 152 164 163 161 145 149 145 152 152 147 149 167 159 159 159 163 152 129 139 143 145 155 157 154 168 173 159 229 351 20 55 95 99 93 106 138 133 120 69 22
148 157 164 161 139 125 133 142 132 129 117 126 128 132 120 104 116 126 116 108 98 103 110 126 147 148 153 159 154 162 153 151 156 161 150 103 103 148 155 139 137 141 162 165 136 136 147 181 157 165 117 24 56 71 73 82 112 94 128 121 92 131
150 156 155 138 106 99 133 136 125 125 124 122 110 104 107 112 114 118 114 107 108 107 109 92 114 139 124 130 126 143 157 169 170 147 145 155 129 128 140 156 168 166 158 149 153 156 172 171 165 160 165 157 121 95 81 80 70 96 56 47 145 167
137 115 111 96 92 130 152 131 126 130 128 128 126 120 109 103 111 107 115 119 110 107 102 110 109 101 115 128 116 106 105 110 133 142 125 131 144 144 149 155 155 140 147 155 171 161 134 161 144 162 175 164 164 163 162 157 166 147 136 123 100 124
112 103 87 90 113 146 150 135 131 132 131 135 132 128 127 134 134 130 130 118 106 93 85 80 75 72 50 70 83 74 79 88 101 112 124 132 127 134 140 132 133 140 159 173 163 162 156 154 158 171 183 180 178 138 119 135 157 142 140 156 142 151
121 96 92 112 133 145 140 138 134 131 131 133 127 129 132 133 140 131 132 124 118 113 109 89 76 76 74 90 97 90 86 98 106 116 131 127 127 130 131 128 131 132 144 156 173 166 171 174 167 172 187 174 150 138 155 134 125 129 111 123 136 135
114 103 110 114 132 132 135 134 135 132 134 133 134 135 143 144 152 141 145 147 145 142 128 128 108 107 126 99 79 102 102 88 97 112 119 124 129 134 126 122 125 131 134 148 150 157 153 159 166 159 147 146 164 181 185 133 141 132 137 123 132 138
99 89 106 128 126 129 132 132 133 133 134 136 142 142 154 152 147 140 146 136 134 129 121 134 122 136 115 100 103 85 86 94 98 105 106 110 116 112 105 97 93 107 97 109 118 123 131 140 144 151 155 156 173 199 197 157 153 158 154 157 155 158
127 133 138 128 122 133 137 136 135 134 140 135 130 126 130 138 136 133 143 134 139 137 133 126 126 117 105 110 100 79 67 77 99 105 105 112 109 102 101 99 92 92 87 76 102 101 128 123 129 137 138 124 104 173 209 163 170 158 169 164 153 148
140 132 115 97 115 127 135 126 135 132 128 122 129 138 146 135 122 124 129 132 133 139 128 124 123 114 108 97 103 95 82 78 86 99 96 99 107 109 108 109 115 107 95 84 96 107 111 101 113 116 125 154 136 132 127 146 160 160 149 130 141 155